OBJECT T, 59068

Orbit data source: Space-Track

You're viewing an Uncataloged Satellite

Recently launched and/or uncataloged satellites may have evolving metadata. Metadata may include but not limited to: Owner, Maufacturer, Bus, Motor, and Mission.

OBJECT T, 59068 is a satellite in LEO that was launched on Thu, 29 Feb 2024 UTC via a SOYUZ-2-1B launch vehicle from the Vostochny Cosmodrome (VOSTO). Unknown objects in Earth's orbit typically refer to objects detected orbiting the Earth but have not yet been identified or cataloged. These objects could be anything from previously untracked satellites, spent rocket stages, debris from satellite collisions, or even natural meteoroids temporarily captured by Earth's gravity.

Loading next visibility...
Identifier
59068, 2024-039T
Orbit
LEO
Country
Flag of TBDTBD
Related business
Manufacturer
Sputniks
Mission
Operational Commercial Communications
Bus & Motor
CUBESAT 3U?, Unknown motor
Mass
3 kg wet, 3 kg dry
Launch date (UTC)
2024-02-29 (2 years ago)
Launch vehicle
SOYUZ-2-1B
Launch site
Vostochny Cosmodrome (VOSTO)
Object type
Unknown
Shape & HBR
Box, 0.1 m
Radar Cross Section
0.035 m², Medium (>0.1 m² and < 1m²)

Expand to show TLE details & history
Last TLE update: 2 hours ago

TLE from 2 hours ago
0 OBJECT T
1 59068U 24039T   26169.75452780  .00001940  00000-0  15275-3 0  9995
2 59068  95.3911 236.3393 0142701 322.4289  36.7031 14.93736253124978
Epoch: 2026-06-18T18:06Z
TLE epoch observation values (Epoch: 2026-06-18T18:06:31.201Z)
Latitude
0.00003°
Longitude
57.71598°
Altitude
510.221 km
Speed
7.652 km/s
True Right ascension
15h 45m 21s
True Declination
0° 00' 00"
Sunlit
Object was in full shadow at epoch
Visualization orbit readout
Latitude
Unknown
Longitude
Unknown
Altitude
Unknown
Speed
Unknown
Apparent Right ascension
Unknown
Apparent Declination
Unknown
Sunlit
N/A
Visualization observer readout
Local Sidereal Time
06:44:22
Azimuth
Unknown
Elevation
Unknown
Doppler factor
Unknown
Orbital elements
Apogee altitude
682.564 km
Perigee altitude
483.885 km
Semi-major axis
6,961.361 km
Eccentricity
0.01427
Inclination
95.3911°
RAAN
236.3393°
Arg. of periapsis
322.4289°
True anomaly
37.69455°
Mean anomaly
36.7031°
Eccentric anomaly
37.1974°
Mean motion
3.73682 °/min
Orbital period
96.34 mins
BSTAR
0.00015275
Loading maneuver chart data...
Computing Atmospheric mass density...
Loading historical data...
Loading historical data...
Loading historical data...
Loading historical data...
Loading historical data...
Loading historical data...
Loading historical data...

Documentation

Showing up to 5 results
|